Starlink 32456

operational
NORAD ID: 62041 Int'l Des: 2024-216 Owner: SPXS Country: US Constellation: starlink
LEOCIRCULAR

Über Starlink 32456

Beschreibung wird geladen...

Live-Position

3D-Globus wird geladen...

Nächste Überflüge

Höhenverlauf

Altitude vs Time

uPlot chart will show altitude changes over time

Zweizeiliger Elementsatz

1 62041U 24216K 25260.09468453 .00035631 00000-0 12994-2 0 9997
2 62041 43.0014 156.9476 0001720 289.8019 70.2647 15.27546152 47322
Epoch: 17. Sept. 2025 • Age: 9 hours

Aktueller Status

Höhe 495.3 km
Geschwindigkeit 7.62 km/s
Subsatellitenpunkt -43.04°S, 96.37°W
Startdatum 21. Nov. 2024
Alter 0.8 years
Typ internet

Technische Details

Klassifizierung Payload
Masse 730.00 kg
Trockenmasse 700.00 kg
Gesamtmasse 730.00 kg
Länge 0.30 m
Durchmesser 4.10 m
Spannweite 29.00 m
Form Box + pan
Hersteller SPXS
Bus-Typ Starlink V2M
Phasenstatus In Orbit
Besitzer/Staat SPXS/US

Große Konstellationen

Loading constellations...